Find Kosmos-1361

NORAD ID: 13164 Int'l Des: 1982-040 Owner: GUKOS Country: SU operational
LEOCIRCULAR

リアルタイム位置

3D地球を読み込み中...

Kosmos-1361について

説明を読み込み中...

次回通過

Passes for default location (London). Set your location on the main map for personalized predictions.

高度履歴

Loading altitude history...

軌道要素

1 13164U 82040E 26105.98432007 -.00000004 00000-0 83637-4 0 9992
2 13164 74.0082 107.9152 0015031 266.0899 122.1759 12.48210252 2368
Epoch: Apr 15, 2026 • Age: 4 hours

現在のステータス

高度 1494.9 km
速度 7.12 km/s
衛星直下点 69.33°N, 23.83°W
打ち上げ日 May 6, 1982
運用期間 43.9 years
タイプ other

技術仕様

分類 Payload
質量 60.00 kg
乾燥質量 60.00 kg
総質量 60.00 kg
長さ 0.80 m
直径 0.80 m
スパン 0.80 m
形状 Poly
製造者 NPOPM
バスタイプ Strela-1 11F625
フェーズステータス In Orbit
所有者/国 GUKOS/SU

Most Searched